カタログに戻る

COSMOS 2251 DEB

運用中LEO
NORAD 36531·DEBRIS·🇷🇺 Russia

打ち上げ Jun 16, 1993 から Plesetsk Cosmodrome

Loading…

次のパス (今後24時間)

TLE

最新Source: Space-Track

元期: Sep 14, 2026, 07:03 UTC

1 36531U 93036BCR 26257.29393470  .00004456  00000-0  13798-2 0  9997
2 36531  74.0808 229.5520 0152472 180.6043 179.4952 14.34989141634436

AllMySatでCOSMOS 2251 DEBをリアルタイム追跡

Download on the App Store